Regional Weather Roundup
Issued by NWS Mt. Holly, NJ

Current Version | Previous Version | Text Only | Print | Product List | Glossary Off
Versions: 1 2 3 4 5 6 7 8 9 10 11 12 13 14 15 16 17 18 19 20 21 22 23 24 25 26 27 28 29 30 31 32 33 34 35 36 37 38 39 40 41 42 43 44 45 46 47 48 49 50

095
ASUS41 KPHI 200712
RWRPHI

REGIONAL WEATHER ROUNDUP
NATIONAL WEATHER SERVICE MOUNT HOLLY NJ
200 AM EST SAT JAN 20 2018

NOTE:  "FAIR" INDICATES FEW OR NO CLOUDS BELOW 12,000 FEET WITH NO
SIGNIFICANT WEATHER AND/OR OBSTRUCTIONS TO VISIBILITY.

 * = STATION DOES NOT REPORT PRECIPITATION (E.G. RAIN, SNOW, ETC.)
        OR FOG.

NJZ015>026-200800-
SOUTHERN NEW JERSEY

CITY           SKY/WX    TMP DP  RH WIND       PRES   REMARKS
POMONA         FAIR      36  19  50 SW6       29.98F WCI  31
WILDWOOD*      FAIR      36  18  48 SW8       30.00F WCI  30
MILLVILLE      FAIR      32  20  61 SW3       29.98F
WRIGHTSTOWN    FAIR      29  17  62 SW5       29.93F WCI  24
MOUNT HOLLY    FAIR      31  18  58 CALM      29.97S
TRENTON        FAIR      35  17  47 SW5       29.94S WCI  31

$$
NJZ001>014-200800-
NORTHERN NEW JERSEY

CITY           SKY/WX    TMP DP  RH WIND       PRES   REMARKS
SUSSEX         FAIR      27  18  69 SW5       29.88S WCI  22
ANDOVER*         N/A     20  17  88 CALM      29.89F
MORRISTOWN     FAIR      19  18  93 CALM      29.91S
NEWARK         FAIR      34  20  56 SW12      29.92F WCI  25
TETERBORO      FAIR      30  20  66 VRB7      29.90F WCI  23
CALDWELL       FAIR      35  19  52 VRB5      29.90F WCI  31
SOMERVILLE     FAIR      22  20  92 CALM      29.91F
ALLAIRE*       FAIR      35  16  45 SW9       29.96R WCI  28
TOMS RIVER*    FAIR      31  19  61 W5        29.97S WCI  26

$$
PAZ043-044-047-054-055-060>062-066>071-200800-
EASTERN PENNSYLVANIA

CITY           SKY/WX    TMP DP  RH WIND       PRES   REMARKS
PHILADELPHIA   FAIR      31  20  63 W7        29.98S WCI  24
NORTH PHILA    FAIR      37  18  46 SW6       29.97F WCI  32
BLUE BELL*     FAIR      30  19  64 CALM      29.97S
DOYLESTOWN     FAIR      30  18  60 S3        29.93F
QUAKERTOWN*    FAIR      25  18  74 MISG      29.94S
PERKASIE*      FAIR      30  18  59 CALM      29.94S
POTTSTOWN      FAIR      32  18  56 SW3       29.96S
LANCASTER      FAIR      32  21  64 CALM      29.96R
COATESVILLE    FAIR      34  19  55 W5        29.96R WCI  30
READING        FAIR      25  20  81 CALM      29.94S
ALLENTOWN      FAIR      27  17  66 SW7       29.92S WCI  19
MOUNT POCONO   FAIR      31  19  61 W20       29.82F WCI  19
HAZLETON       FAIR      32  21  64 SW5       29.90S WCI  27
LEHIGHTON      FAIR      18  16  93 CALM      29.93S
WILKES BARRE   FAIR      36  22  56 SW12      29.87F WCI  28

$$
DEZALL-MDZ008-012-015-019-020-200800-
DELAWARE AND EASTERN MARYLAND

CITY           SKY/WX    TMP DP  RH WIND       PRES   REMARKS
WILMINGTON     FAIR      30  20  66 SW5       29.98F WCI  25
DOVER          FAIR      31  20  62 SW7       29.99F WCI  25
GEORGETOWN     FAIR      32  16  51 SW6       30.01F WCI  26
EASTON         FAIR      32  18  55 SW3       30.04S
ABERDEEN       FAIR     N/A N/A N/A W3        29.99F
OCEAN CITY     FAIR      34  21  59 SW7       30.03F WCI  28
WALLOPS ISLAND FAIR      38  15  39 SW7       30.04F WCI  33
CAMBRIDGE      CLEAR     27  21  80 CALM      30.02S
SALISBURY      FAIR      30  18  60 S6        30.02F WCI  24

$$
PAZ001-021-NYZ056-072-MDZ011-DCZ001-200800-
OTHER NEARBY LOCATIONS

CITY           SKY/WX    TMP DP  RH WIND       PRES   REMARKS
HARRISBURG     FAIR      24  19  81 CALM      29.95S
STATE COLLEGE  FAIR      34  21  58 SW13      29.90S WCI  25
WILLIAMSPORT   FAIR      25  20  81 E5        29.89F WCI  19
BINGHAMTON     FAIR      32  18  56 SW15      29.76F WCI  22
NEW YORK CITY  FAIR      39  19  44 SW9G17    29.92F WCI  33
BALTIMORE      FAIR      27  20  75 W3        29.99F
WASHINGTON DC  FAIR      32  20  61 S5        30.01F WCI  27

$$




USA.gov is the U.S. government's official web portal to all federal, state and local government web resources and services.